GSAT-15 (GAGAN/PRN 139)

Last updated on Aug. 7, 2020, 5:36 a.m. UTC

1 41028U 15065A   20219.81426703 -.00000270  00000-0  00000-0 0  9997
2 41028   0.0846 274.6451 0002942 187.7969 239.9901  1.00271271 17347
UTC
Height (km)
Latitude
Longitude
Inclination
Orbital Period
UTC large
Height (km)
Speed (km/s)
/
Latitude / Longitude
Inclination (degrees)
Orbital Period (minutes)
Azimuth
Elevation
Range (km)
Doppler Factor
iOS Compass Heading
iOS Angle

Next 30 passes for location: Hong Kong

Rise time Rise Azimuth (degrees) Set time Set Azimuth (degrees) Duration Max altitude (degrees)

No matching passes for this satellites